Погода в Ловине

Индонезия     8°09′40″S   115°01′42″E
темп.,
°C
ветер,
м/с
пор.,
м/с
влажн.,
%
обл.,
%
осадки,
мм/ч
давл.,
гПа
погр.,
м
2 марта, вт
вт223:00+21всв119618 0.0 101136
02:00+21всв119624 0.3 101048
05:00+20всв119549 0.0 100855
08:00+23св128825 0.0 1010124
11:00+28ссз22617 0.0 1010751
14:00+27ссз226614 0.4 1008810
17:00+25ссз128141 1.5 1008363
20:00+21в118621 1.9 101027
3 марта, ср
ср323:00+21в12959 0.6 101234
02:00+21в119410 0.8 101041
05:00+20вюв12910 0.0 100932
08:00+24в11832 0.0 101170
11:00+27ссз11740 0.7 1011581
14:00+27ссз227520 2.4 1008815
17:00+25ссз118392 1.2 1008459
20:00+22ююв119588 4.7 101046
4 марта, чт
чт423:00+21всв129479 4.8 101249
02:00+21ссв129873 5.5 1010115
05:00+21в129799 0.0 101082
08:00+22юв118398 0.0 101235
11:00+29зсз135298 0.0 10111222
14:00+27зсз237499 0.9 1009654
17:00+24з1288100 3.9 1008329
20:00+21ю2292100 5.9 101143
5 марта, пт
пт523:00+20ю2294100 0.0 101161
02:00+20ю2295100 0.1 101092
05:00+21ю2296100 1.9 101087
08:00+22ю3595100 2.5 1011373
11:00+24ю248199 0.9 1012508
14:00+27юз246399 1.3 10091120
17:00+24ююз237882 0.4 1008586
20:00+21ююв129491 0.4 101060
6 марта, сб
сб623:00+21вюв1189100 0.0 101031
02:00+21в1188100 0.0 100941
05:00+20в1195100 0.0 100940
08:00+24в0179100 0.1 1010117
11:00+27ссз217194 0.4 1011823
14:00+26с227797 3.5 1008756
17:00+25с2276100 1.3 1008534
20:00+21всв118985 1.5 101037